| time (UTC) | temp F | wind direction | speed MPH | gust MPH | rain 1hr in | rain 24hr in | rain mn in | humidity % | barometer mb |
| 20260507022010 | 50 | 0 | 0.0 | 0.0 | 0.00 | 0.00 | 0.00 | 100 | 13.6 |
| 20260507021010 | 50 | 0 | 0.0 | 0.0 | 0.00 | 0.00 | 0.00 | 100 | 13.5 |
| 20260507020011 | 50 | 0 | 0.0 | 0.0 | 0.00 | 0.00 | 0.00 | 100 | 13.5 |
| 20260507015010 | 50 | 0 | 0.0 | 0.0 | 0.00 | 0.00 | 0.00 | 100 | 13.4 |
| 20260507014010 | 50 | 0 | 0.0 | 0.0 | 0.00 | 0.00 | 0.00 | 100 | 13.3 |
| 20260507013010 | 50 | 0 | 0.0 | 0.0 | 0.00 | 0.00 | 0.00 | 100 | 13.2 |
| 20260507012010 | 50 | 0 | 0.0 | 0.0 | 0.00 | 0.00 | 0.00 | 100 | 13.2 |
| 20260507010011 | 50 | 0 | 0.0 | 0.0 | 0.00 | 0.00 | 0.00 | 100 | 13.2 |
| 20260507005010 | 50 | 0 | 0.0 | 0.0 | 0.00 | 0.00 | 0.00 | 100 | 13.2 |
| 20260507004010 | 50 | 0 | 0.0 | 0.0 | 0.00 | 0.00 | 0.00 | 100 | 13.3 |
| 20260507003010 | 50 | 0 | 0.0 | 0.0 | 0.00 | 0.00 | 0.00 | 100 | 13.3 |
| 20260507002010 | 49 | 0 | 0.0 | 0.0 | 0.00 | 0.00 | 0.00 | 99 | 13.2 |
| 20260507000011 | 50 | 0 | 0.0 | 0.0 | 0.00 | 0.00 | 0.00 | 99 | 13.2 |
| 20260506235010 | 50 | 0 | 0.0 | 0.0 | 0.00 | 0.00 | 0.00 | 100 | 13.2 |
| 20260506234010 | 50 | 0 | 0.0 | 0.0 | 0.00 | 0.00 | 0.00 | 99 | 13.1 |
| 20260506233010 | 50 | 0 | 0.0 | 0.0 | 0.00 | 0.00 | 0.00 | 99 | 13.2 |
| 20260506232010 | 50 | 0 | 0.0 | 0.0 | 0.00 | 0.00 | 0.00 | 99 | 13.1 |
| 20260506231010 | 50 | 0 | 0.0 | 0.0 | 0.00 | 0.00 | 0.00 | 99 | 13.0 |
| 20260506230011 | 50 | 0 | 0.0 | 0.0 | 0.00 | 0.00 | 0.00 | 99 | 13.0 |
| 20260506224010 | 50 | 0 | 0.0 | 0.0 | 0.00 | 0.00 | 0.00 | 100 | 12.9 |
| 20260506223010 | 50 | 0 | 0.0 | 0.0 | 0.00 | 0.00 | 0.00 | 99 | 12.9 |
| 20260506222010 | 50 | 0 | 0.0 | 0.0 | 0.00 | 0.00 | 0.00 | 99 | 12.8 |
| 20260506221010 | 50 | 0 | 0.0 | 0.0 | 0.00 | 0.00 | 0.00 | 99 | 12.8 |
| 20260506220010 | 50 | 0 | 0.0 | 0.0 | 0.00 | 0.83 | 0.83 | 99 | 12.8 |
| 20260506215010 | 50 | 0 | 0.0 | 0.0 | 0.00 | 0.83 | 0.83 | 99 | 12.8 |
| 20260506214010 | 50 | 0 | 0.0 | 0.0 | 0.00 | 0.83 | 0.83 | 99 | 12.7 |
| 20260506213010 | 50 | 0 | 0.0 | 0.0 | 0.00 | 0.83 | 0.83 | 99 | 12.6 |
| 20260506211011 | 50 | 0 | 0.0 | 0.0 | 0.00 | 0.83 | 0.83 | 99 | 12.6 |
| 20260506210011 | 50 | 0 | 0.0 | 0.0 | 0.00 | 0.83 | 0.83 | 99 | 12.6 |
| 20260506205010 | 50 | 0 | 0.0 | 0.0 | 0.00 | 0.83 | 0.83 | 99 | 12.5 |
| 20260506204011 | 50 | 0 | 0.0 | 0.0 | 0.00 | 0.83 | 0.83 | 99 | 12.5 |
| 20260506202011 | 50 | 0 | 0.0 | 0.0 | 0.00 | 0.83 | 0.83 | 99 | 12.2 |
| 20260506200010 | 50 | 0 | 0.0 | 0.0 | 0.00 | 0.83 | 0.83 | 99 | 12.1 |
| 20260506195010 | 50 | 0 | 0.0 | 0.0 | 0.00 | 0.83 | 0.83 | 99 | 12.0 |
| 20260506193010 | 50 | 0 | 0.0 | 0.0 | 0.00 | 0.83 | 0.83 | 99 | 11.8 |
| 20260506192010 | 50 | 0 | 0.0 | 0.0 | 0.00 | 0.83 | 0.83 | 98 | 11.7 |
| 20260506191010 | 50 | 0 | 0.0 | 0.0 | 0.00 | 0.83 | 0.83 | 98 | 11.6 |
| 20260506185010 | 51 | 135 | 0.0 | 3.0 | 0.01 | 0.83 | 0.83 | 98 | 11.6 |
| 20260506184010 | 51 | 135 | 2.0 | 4.0 | 0.02 | 0.83 | 0.83 | 98 | 11.5 |
| 20260506183010 | 51 | 135 | 2.0 | 5.0 | 0.02 | 0.83 | 0.83 | 98 | 11.4 |
| 20260506182010 | 51 | 135 | 3.0 | 6.0 | 0.02 | 0.83 | 0.83 | 98 | 11.2 |
| 20260506180011 | 50 | 157 | 3.0 | 7.0 | 0.04 | 0.83 | 0.83 | 98 | 11.0 |
| 20260506175010 | 50 | 135 | 1.0 | 3.0 | 0.05 | 0.82 | 0.82 | 98 | 10.9 |
| 20260506174010 | 50 | 135 | 2.0 | 4.0 | 0.05 | 0.81 | 0.81 | 98 | 10.8 |
| 20260506171010 | 50 | 157 | 0.0 | 4.0 | 0.04 | 0.80 | 0.80 | 98 | 10.8 |
| 20260506170011 | 50 | 180 | 1.0 | 5.0 | 0.03 | 0.79 | 0.79 | 98 | 10.8 |
| 20260506165010 | 50 | 0 | 0.0 | 0.0 | 0.02 | 0.77 | 0.77 | 98 | 10.6 |
| 20260506164010 | 50 | 0 | 0.0 | 0.0 | 0.04 | 0.76 | 0.76 | 98 | 10.5 |
| 20260506163010 | 50 | 0 | 0.0 | 0.0 | 0.24 | 0.76 | 0.76 | 97 | 10.5 |
| 20260506162010 | 50 | 0 | 0.0 | 0.0 | 0.33 | 0.76 | 0.76 | 97 | 10.5 |
| 20260506161010 | 50 | 22 | 3.0 | 4.0 | 0.34 | 0.76 | 0.76 | 97 | 10.4 |
| 20260506155010 | 50 | 0 | 0.0 | 0.0 | 0.35 | 0.75 | 0.75 | 96 | 10.6 |
| 20260506152005 | 54 | 270 | 3.0 | 12.0 | 0.03 | 0.43 | 0.43 | 94 | 10.4 |
| 20260506151005 | 54 | 135 | 7.0 | 11.0 | 0.02 | 0.42 | 0.42 | 95 | 9.7 |
| 20260506145005 | 55 | 157 | 5.0 | 10.0 | 0.00 | 0.40 | 0.40 | 93 | 9.8 |
| 20260506143005 | 57 | 157 | 7.0 | 11.0 | 0.00 | 0.40 | 0.40 | 92 | 9.6 |
| 20260506142005 | 58 | 157 | 7.0 | 11.0 | 0.00 | 0.40 | 0.40 | 93 | 9.5 |
| 20260506141005 | 57 | 157 | 6.0 | 10.0 | 0.02 | 0.40 | 0.40 | 94 | 9.6 |
| 20260506140005 | 56 | 157 | 6.0 | 10.0 | 0.02 | 0.40 | 0.40 | 95 | 9.8 |
| 20260506135005 | 56 | 157 | 5.0 | 11.0 | 0.02 | 0.40 | 0.40 | 94 | 9.8 |
| 20260506133005 | 56 | 157 | 5.0 | 9.0 | 0.02 | 0.40 | 0.40 | 95 | 9.9 |
| 20260506132005 | 56 | 157 | 3.0 | 9.0 | 0.02 | 0.40 | 0.40 | 94 | 9.9 |
| 20260506131004 | 57 | 157 | 4.0 | 10.0 | 0.00 | 0.39 | 0.39 | 93 | 9.9 |
| 20260506130005 | 56 | 157 | 4.0 | 9.0 | 0.00 | 0.39 | 0.39 | 95 | 9.8 |
| 20260506125005 | 56 | 157 | 6.0 | 9.0 | 0.00 | 0.39 | 0.39 | 95 | 9.8 |
| 20260506124005 | 56 | 157 | 5.0 | 11.0 | 0.01 | 0.39 | 0.39 | 95 | 9.8 |
| 20260506122004 | 55 | 180 | 3.0 | 8.0 | 0.01 | 0.39 | 0.39 | 96 | 9.9 |
| 20260506121004 | 55 | 157 | 3.0 | 8.0 | 0.02 | 0.39 | 0.39 | 96 | 9.9 |
| 20260506115005 | 54 | 157 | 2.0 | 7.0 | 0.03 | 0.39 | 0.39 | 97 | 10.0 |
| 20260506113004 | 53 | 157 | 3.0 | 7.0 | 0.04 | 0.38 | 0.38 | 98 | 10.1 |
| 20260506112004 | 53 | 157 | 2.0 | 7.0 | 0.05 | 0.38 | 0.38 | 98 | 10.2 |
| 20260506111004 | 53 | 180 | 2.0 | 6.0 | 0.05 | 0.37 | 0.37 | 98 | 10.2 |
| 20260506110005 | 53 | 180 | 1.0 | 6.0 | 0.05 | 0.36 | 0.36 | 98 | 10.1 |
| 20260506105004 | 53 | 202 | 2.0 | 7.0 | 0.06 | 0.35 | 0.35 | 98 | 10.2 |
| 20260506104004 | 53 | 225 | 2.0 | 7.0 | 0.08 | 0.35 | 0.35 | 98 | 10.1 |
| 20260506103004 | 53 | 202 | 2.0 | 6.0 | 0.08 | 0.34 | 0.34 | 98 | 10.1 |
| 20260506102004 | 53 | 225 | 2.0 | 5.0 | 0.08 | 0.33 | 0.33 | 98 | 9.9 |
| 20260506101004 | 53 | 225 | 2.0 | 5.0 | 0.08 | 0.32 | 0.32 | 98 | 9.8 |
| 20260506100005 | 53 | 225 | 1.0 | 6.0 | 0.08 | 0.31 | 0.31 | 98 | 9.7 |
| 20260506094004 | 53 | 225 | 1.0 | 4.0 | 0.06 | 0.28 | 0.28 | 99 | 9.5 |
| 20260506093004 | 53 | 225 | 1.0 | 3.0 | 0.06 | 0.26 | 0.26 | 99 | 9.5 |
| 20260506092004 | 53 | 202 | 1.0 | 4.0 | 0.06 | 0.25 | 0.25 | 98 | 9.3 |
| 20260506091005 | 53 | 202 | 1.0 | 3.0 | 0.06 | 0.24 | 0.24 | 98 | 9.3 |
| 20260506090005 | 53 | 225 | 0.0 | 3.0 | 0.06 | 0.24 | 0.24 | 98 | 9.2 |
| 20260506085004 | 53 | 202 | 1.0 | 5.0 | 0.07 | 0.23 | 0.23 | 98 | 9.0 |
| 20260506084004 | 52 | 225 | 2.0 | 6.0 | 0.07 | 0.21 | 0.21 | 98 | 8.9 |
| 20260506083004 | 52 | 225 | 4.0 | 8.0 | 0.08 | 0.20 | 0.20 | 98 | 8.8 |
| 20260506081004 | 52 | 225 | 3.0 | 6.0 | 0.09 | 0.18 | 0.18 | 98 | 8.6 |
| 20260506073004 | 52 | 225 | 6.0 | 10.0 | 0.09 | 0.13 | 0.13 | 99 | 8.2 |
| 20260506072004 | 52 | 225 | 5.0 | 10.0 | 0.08 | 0.10 | 0.10 | 99 | 8.1 |
| 20260506071004 | 52 | 225 | 5.0 | 11.0 | 0.06 | 0.09 | 0.09 | 99 | 7.9 |
| 20260506062004 | 52 | 202 | 0.0 | 3.0 | 0.02 | 0.02 | 0.02 | 99 | 7.6 |
| 20260506061004 | 52 | 202 | 0.0 | 2.0 | 0.02 | 0.02 | 0.02 | 99 | 7.5 |
| 20260506045004 | 52 | 0 | 0.0 | 0.0 | 0.00 | 0.01 | 0.01 | 99 | 7.1 |
| 20260506044004 | 52 | 0 | 0.0 | 0.0 | 0.00 | 0.01 | 0.01 | 99 | 7.1 |
| 20260506043004 | 52 | 0 | 0.0 | 0.0 | 0.00 | 0.01 | 0.01 | 99 | 7.2 |
| 20260506042004 | 52 | 0 | 0.0 | 0.0 | 0.00 | 0.01 | 0.01 | 99 | 7.3 |
| 20260506041004 | 52 | 0 | 0.0 | 0.0 | 0.00 | 0.01 | 0.01 | 98 | 7.3 |
| 20260506040004 | 52 | 0 | 0.0 | 0.0 | 0.00 | 0.01 | 0.01 | 98 | 7.3 |
| 20260506035004 | 52 | 0 | 0.0 | 0.0 | 0.00 | 0.01 | 0.01 | 98 | 7.3 |
| 20260506034004 | 52 | 202 | 0.0 | 3.0 | 0.00 | 0.01 | 0.01 | 98 | 7.3 |
| 20260506033004 | 52 | 0 | 0.0 | 0.0 | 0.00 | 0.01 | 0.01 | 98 | 7.3 |
| 20260506032004 | 52 | 0 | 0.0 | 0.0 | 0.00 | 0.01 | 0.01 | 98 | 7.4 |
| 20260506031004 | 52 | 360 | 0.0 | 3.0 | 0.00 | 0.01 | 0.01 | 98 | 7.5 |
| 20260506030004 | 52 | 0 | 0.0 | 0.0 | 0.00 | 0.01 | 0.01 | 98 | 7.7 |
| 20260506025004 | 52 | 0 | 0.0 | 0.0 | 0.00 | 0.01 | 0.01 | 98 | 7.6 |
| 20260506024004 | 53 | 0 | 0.0 | 0.0 | 0.00 | 0.01 | 0.01 | 98 | 7.8 |
| 20260506023004 | 53 | 0 | 0.0 | 0.0 | 0.00 | 0.01 | 0.01 | 98 | 7.7 |